sat.trackr.live / text

‹ back to catalog

STARLINK-31566

NORAD 59475 · 2024-068W

PAYLOAD ACTIVE UNKNOWN

§ Identity

Operator
Country
US
Launch date
2024-04-10
Launch site
AFETR
Launch vehicle
Mass (kg)
RCS (m²)

Purposes: comms

External: N2YO · Heavens-Above · Gunter

§ Orbital elements

Epoch: 2026-05-25T04:31:02.267616Z

Period
94.27 min
Inclination
43.0037°
Eccentricity
0.0000934
Mean motion
15.27570223 rev/d
Perigee alt
482.4 km
Apogee alt
483.7 km
Semi-major
6,861.2 km
B*
9.2611e-5
RAAN
322.3628°
Arg perigee
287.8746°
Mean anomaly
72.2004°
Rev number
12,022

§ Raw data

STARLINK-315661 59475U 24068W   26145.18822069  .00002286  00000+0  92611-4 0  99942 59475  43.0037 322.3628 0000934 287.8746  72.2004 15.27570223120229

JSON: /api/v1/satellites/59475 · /tle

For live sub-satellite position, see the globe view (requires WebGL).

§ Visibility from observer

Set your observer location to see the next 7 days of passes ≥ 10°. The values pass through the URL so the page stays shareable.

No JS? Fill the form by hand. The geolocation button needs JavaScript.